Weather Roundup
Issued by NWS

Home | Current Version | Previous Version | Text Only | Print | Product List | Glossary On
Versions: 1 2 3 4 5 6 7 8 9 10 11 12 13 14 15 16 17 18 19 20 21 22 23 24 25 26 27 28 29 30 31 32 33 34 35 36 37 38 39 40 41 42 43 44 45 46 47 48 49 50
000
NZUS93 KARX 290510
HRRWXR

CURRENT HOURLY OBSERVATIONS ACROSS
MUCH OF THE UPPER MISSISSIPPI VALLEY
NATIONAL WEATHER SERVICE LA CROSSE WI
1200 AM CDT SAT AUG 29 2015


...SOUTHEAST MINNESOTA...


CITY           SKY/WX    TMP DP  RH WIND       PRES   REMARKS
ROCHESTER      CLOUDY    58  56  93 E9        30.01R
ROCHESTER/MAYO CLOUDY    58  58 100 NE5       30.02R
WINONA         CLOUDY    59  55  88 E3        30.02S
AUSTIN         CLOUDY    59  57  94 NE6       29.98S
ALBERT LEA     CLOUDY    57  57 100 NE3       29.99F
DODGE CENTER   CLOUDY    55  54  94 N5        30.02R FOG
PRESTON        CLOUDY    57  56  94 E7        30.00F
OWATONNA       PTCLDY    55  54  94 E3        30.01F
FARIBAULT      CLEAR     55  54  94 CALM      30.02F
$$

...ELSEWHERE IN MINNESOTA...


CITY           SKY/WX    TMP DP  RH WIND       PRES   REMARKS
MINNEAPOLIS    CLEAR     61  55  81 NE5       30.04S
INTNL FALLS    CLOUDY    70  65  84 SW7       29.89R
DULUTH         PTCLDY    64  59  83 SW14      30.00R
RED WING       CLEAR     57  55  94 E5        30.02S
REDWOOD FALLS  CLEAR     58  56  93 CALM      30.03S
MANKATO        CLEAR     57  54  88 NE5       30.01F
WORTHINGTON    CLOUDY    59  55  88 CALM      30.02F
FAIRMONT       CLOUDY    59  54  82 NE5       30.01S
$$

...SOUTHWEST WISCONSIN...


CITY           SKY/WX    TMP DP  RH WIND       PRES   REMARKS
LA CROSSE      CLOUDY    60  57  89 SE7       30.01F
PRAIRIE DU CHI DRIZZLE   63  61  94 E5        29.99S
BOSCOBEL       LGT RAIN  63  61  93 NE6       30.01F FOG
LONE ROCK      RAIN      62  60  93 E8        30.04S FOG
PLATTEVILLE    CLOUDY    64  64  97 SE18      29.98S
FORT MC COY    CLOUDY    58  56  94 E7        30.04F
CAMP DOUGLAS   DRIZZLE   57  57 100 E7        30.05F
VIROQUA        CLOUDY    58  58 100 E7        30.03F
WIS DELLS      LGT RAIN  56  55  94 E12       30.07S
$$

...ELSEWHERE IN WISCONSIN...


CITY           SKY/WX    TMP DP  RH WIND       PRES   REMARKS
MILWAUKEE      LGT RAIN  63  61  93 E7        30.09F VSB 1/2
MADISON        LGT RAIN  60  58  92 E10       30.05F
GREEN BAY      CLOUDY    59  55  87 SW9G18    30.13S
EAU CLAIRE     CLEAR     55  53  93 NE5       30.04F
BLACK RVR FLS  CLOUDY    57  57 100 E3        30.03F
MEDFORD        CLEAR     56  54  95 SE5       30.08S
WAUSAU         CLOUDY    59  54  83 S7        30.07F
WIS RAPIDS     CLOUDY    58  54  86 SE6       30.08F
MARSHFIELD     PTCLDY    56  52  86 SE6       30.07F
RICE LAKE      CLEAR     55  53  94 CALM      30.09R
$$

...NORTHEAST IOWA...


CITY           SKY/WX    TMP DP  RH WIND       PRES   REMARKS
DECORAH        CLOUDY    61  61 100 E9        29.98F
MASON CITY     CLOUDY    60  59  96 NE8       29.97S
CHARLES CITY   CLOUDY    61  61 100 E14       29.96F FOG
OELWEIN        RAIN      64  64 100 N6        29.95S
$$

...ELSEWHERE IN IOWA...


CITY           SKY/WX    TMP DP  RH WIND       PRES   REMARKS
DES MOINES     CLOUDY    71  67  87 S7        29.91R
IOWA CITY      RAIN      66  66 100 SE8       29.96S
FORT DODGE     CLOUDY    61  57  88 N6        29.95S
$$

...NORTHERN ILLINOIS...


CITY           SKY/WX    TMP DP  RH WIND       PRES   REMARKS
CHICAGO-OHARE  CLOUDY    70  63  78 NE5       30.08R
CHICAGO-MIDWAY CLOUDY    72  60  66 SE6       30.07S
MOLINE         RAIN      67  62  84 SE9       30.00F
ROCKFORD       RAIN      65  62  90 SE8       30.08S FOG
PEORIA         CLOUDY    72  59  63 SE6       30.04R
$$

NOTE: "FAIR" INDICATES FEW OR NO CLOUDS BELOW 12,000 FEET WITH NO
SIGNIFICANT WEATHER AND/OR OBSTRUCTIONS TO VISIBILITY. WIND
SPEEDS ARE IN MILES-PER-HOUR.



USA.gov is the U.S. government's official web portal to all federal, state and local government web resources and services.